Regional Weather Roundup
Issued by NWS

Home | Current Version | Previous Version | Graphics & Text | Print | Product List | Glossary On
Versions: 1 2 3 4 5 6 7 8 9 10 11 12 13 14 15 16 17 18 19 20 21 22 23 24 25 26 27 28 29 30 31 32 33 34 35 36 37 38 39 40 41 42 43 44 45 46 47 48 49 50
000
ASUS43 KDMX 281207
RWRIA

WEATHER ROUNDUP FOR IOWA
NATIONAL WEATHER SERVICE DES MOINES IA
700 AM CDT THU AUG 28 2014

NOTE: "FAIR" INDICATES FEW OR NO CLOUDS BELOW 12,000 FEET WITH NO
SIGNIFICANT WEATHER AND/OR OBSTRUCTIONS TO VISIBILITY.

* - THESE STATIONS ARE NOT NWS STATIONS...THUS NOT UNDER NWS
QUALITY CONTROL.  THEY ALSO DO NOT REPORT WEATHER SUCH
AS PRECIPITATION OR FOG.

IAZ001>003-012>014-020>022-031>034-043>046-281300-
   NORTHWEST IOWA

CITY           SKY/WX    TMP DP  RH WIND       PRES   REMARKS
CARROLL *      LGT RAIN  68  68 100 SE7       30.02S
DENISON *      LGT RAIN  68  68 100 SE10G17   29.98F
LE MARS *      LGT RAIN  68  68 100 SE8       29.99S
ORANGE CITY *  RAIN      70  66  88 SE5       29.99S
SHELDON *      LGT RAIN  66  66 100 SE9       29.99S
SIOUX CITY     LGT RAIN  68  66  93 SE12      29.96F
6HR MIN TEMP:  68; 6HR MAX TEMP:  69; 6HR PCP:  0.55;

SPENCER        LGT RAIN  65  63  93 E10       30.02S
6HR MIN TEMP:  65; 6HR MAX TEMP:  67; 6HR PCP:  0.06;

STORM LAKE *   LGT RAIN  66  66 100 SE9       30.02S
$$

IAZ055>058-069>071-079>083-090>094-281300-
   SOUTHWEST IOWA

CITY           SKY/WX    TMP DP  RH WIND       PRES   REMARKS
ATLANTIC *     RAIN      70  68  94 E12       29.99F
AUDUBON *      RAIN      70  68  94 E6        30.02S
CLARINDA *     CLOUDY    70  68  94 CALM      29.99R
COUNCIL BLFS * LGT RAIN  70  70 100 E10       29.95R
CRESTON *      CLOUDY    68  68 100 VRB6      29.99F
HARLAN  *      LGT RAIN  68  68 100 E9        30.01F
LAMONI         LGT RAIN  69  67  93 E6        30.01F
6HR MIN TEMP:  69; 6HR MAX TEMP:  72; 6HR PCP:  0.40;

RED OAK *      CLOUDY    70  70 100 E9        29.98F FOG
SHENANDOAH *   CLOUDY    70  70 100 E12       29.97F
$$

IAZ047>049-059>061-072>074-084-281300-
   CENTRAL IOWA

CITY           SKY/WX    TMP DP  RH WIND       PRES   REMARKS
AMES           RAIN      65  65 100 E6        30.04F FOG
6HR MIN TEMP:  65; 6HR MAX TEMP:  68; 6HR PCP:  0.32;

ANKENY *       MOCLDY    66  64  94 E5        30.04S
CHARITON *     RAIN      70  68  94 CALM      30.05R
DES MOINES     TSTM      69  65  86 SE3       30.03F FOG
6HR MIN TEMP:  69; 6HR MAX TEMP:  71; 6HR PCP:  0.14;

GRINNELL*      LGT RAIN  64  63  94 E6        30.06S
KNOXVILLE *    LGT RAIN  68  64  88 CALM      30.03S
MARSHALLTOWN   LGT RAIN  65  63  93 E3        30.07R
6HR MIN TEMP:  65; 6HR MAX TEMP:  66; 6HR PCP: TRACE;

PELLA *        LGT RAIN  67  64  89 CALM      30.06R
PERRY *        LGT RAIN  66  66 100 E8        30.03S
$$

IAZ004>006-015-016-023>025-035-036-281300-
   NORTH CENTRAL IOWA

CITY           SKY/WX    TMP DP  RH WIND       PRES   REMARKS
ALGONA *       CLOUDY    64  63  94 SE8       30.05S
CLARION *      LGT RAIN  64  63  94 SE7       30.06S
ESTHERVILLE    LGT RAIN  62  61  96 SE8       30.04S FOG
6HR MIN TEMP:  62; 6HR MAX TEMP:  64; 6HR PCP:  0.02;

FORT DODGE *   CLOUDY    64  63  94 SE8       30.05S
MASON CITY     CLOUDY    63  60  90 SE8       30.08S
6HR MIN TEMP:  62; 6HR MAX TEMP:  64;

FOREST CITY *  CLOUDY    63  63 100 SE7       30.06S
IOWA FALLS *   LGT RAIN  65  61  89 CALM      30.08S
$$

IAZ007>011-017>019-026>030-037>042-050>054-066-281300-
   NORTHEAST IOWA

CITY           SKY/WX    TMP DP  RH WIND       PRES   REMARKS
CEDAR RAPIDS   MOCLDY    65  63  93 E8        30.07R
6HR MIN TEMP:  64; 6HR MAX TEMP:  67;

CHARLES CITY * CLOUDY    63  61  94 E7        30.09S
CLINTON *      MOCLDY    64  61  88 E9        30.12S
DECORAH *      CLEAR     59  59 100 SE5       30.10R
DUBUQUE        PTCLDY    63  61  93 SE9       30.11F
6HR MIN TEMP:  62; 6HR MAX TEMP:  64;

MONTICELLO *   MOCLDY    64  63  94 E10       30.08F
OELWEIN *      CLOUDY    64  63  94 SE7       30.10R
WATERLOO       MOCLDY    65  61  87 E7        30.06S
6HR MIN TEMP:  62; 6HR MAX TEMP:  65;

$$

IAZ064-065-067-068-078-281300-
   EAST CENTRAL IOWA

CITY           SKY/WX    TMP DP  RH WIND       PRES   REMARKS
DAVENPORT      MOCLDY    65  61  87 SE12      30.09S
6HR MIN TEMP:  64; 6HR MAX TEMP:  66;

IOWA CITY      MOCLDY    67  62  84 E6        30.08R
6HR MIN TEMP:  67; 6HR MAX TEMP:  71;

MT. PLEASANT * CLOUDY    68  66  92 E7        30.06F
MUSCATINE *    MOCLDY    68  57  68 SE5       30.08R
QUAD CITIES    MOCLDY    66  61  84 E8        30.09R
6HR MIN TEMP:  64; 6HR MAX TEMP:  68;

$$

IAZ062-063-075>077-085>089-095>099-281300-
   SOUTHEAST IOWA

CITY           SKY/WX    TMP DP  RH WIND       PRES   REMARKS
BURLINGTON     MOCLDY    69  63  81 E9        30.07R
6HR MIN TEMP:  68; 6HR MAX TEMP:  70; 6HR PCP: TRACE;

FAIRFIELD *    CLOUDY    66  64  94 E9        30.05S
FORT MADISON * CLOUDY    70  70 100 E6        30.07S
KEOKUK *       MOCLDY    70  70 100 E9        30.05R
OSKALOOSA *    CLOUDY    67  64  92 E7        30.04F
CENTERVILLE *  LGT RAIN  68  68 100 E5        30.04S
OTTUMWA        CLOUDY    67  64  90 E10       30.03F
6HR MIN TEMP:  67; 6HR MAX TEMP:  69;

WASHINGTON *   MOCLDY    66  64  94 E9        30.06S
$$

ABBREVIATIONS USED IN REMARKS
   TC - TEMPERATURES IN CELSIUS
  WCI - WIND CHILL INDEX
   HX - HEAT INDEX
  VSB - VISIBILITY
$$




USA.gov is the U.S. government's official web portal to all federal, state and local government web resources and services.